CZ-2D DEB, 44607

Orbit data source: Space-Track

CZ-2D DEB, 44607 is space debris in SSO originally from a launch on Fri, 11 Nov 2016 UTC launched from the Jiuquan Satellite Launch Center, China (JSC). Debris objects in space refer to the collection of defunct objects orbiting the Earth. Examples of debris include non-operational satellites, rocket bodies, and fragments generated from explosions, collisions, or faulty payload assembly.

Loading next visibility...
CZ-2D DEB details
Identifier
44607, 2016-068G
Orbit
SSO
Last TLE update2 days ago
Origin
Flag of CNCASC (CN / PRC)
ManufacturerUnknown
MissionSpacecraft
Bus & MotorUnknown
MassUnknown
Launch date (UTC)
2016-11-11 (8 years ago)
Launch vehicleUnknown
Launch site
Jiuquan Satellite Launch Center, China (JSC)
Object type
Payload
Rocket body
Debris
Shape & HBRUnknown
Radar Cross SectionSmall (<0.1 m²)

Expand to show TLE details & history

TLE from 2 days ago
0 CZ-2D DEB
1 44607U 16068G   24359.68406955  .00002125  00000-0  13268-2 0  9990
2 44607  98.4490 163.8067 0205257 235.9541 122.1984 13.95896173405534
Epoch: 2024-12-24T16:25Z
Definitive object data (Epoch: 2024-12-24T16:25:03.609Z)
Latitude-0.00009°
Longitude-176.14696°
Altitude992.799 km
Speed7.314 km/s
True Right ascension10h 55m 13s
True Declination0° 00' 00"
Sunlit
Object was in daylight at TLE epoch
Visualization TLE readout
Latitude-33.67131°
Longitude-0.1765°
Altitude777.515 km
Speed7.537 km/s
Apparent Right ascension22h 23m 57s
Apparent Declination-36° 30' 49"
Sunlit
Object is in daylight
Visualization observer readout
Local Sidereal Time10:05:31
Azimuth311.769° NW
Elevation-85.032°
Doppler factor1
Orbital elements
Apogee altitude1,054.714 km
Perigee altitude755.722 km
Semi-major axis7,283.355 km
Eccentricity0.0205257
Inclination98.449°
RAAN163.8067°
Arg. of periapsis235.9541°
True anomaly124.1615°
Mean anomaly122.1984°
Eccentric anomaly123.18266°
Mean motion3.49177 °/min
BSTAR0.0013268
Orbital period103.1 mins
Loading maneuver chart data...
Loading historical data...
Loading historical data...
Loading historical data...
Loading historical data...
Loading historical data...
Loading historical data...
Loading historical data...

CZ-2D DEB Visibility forecast

Observer location: undefined°, undefined

Span
Click to sort rows by Start time (UTC) header in descending order
Start Az.
Max El. time (UTC)
Max El. Az.
Max El.
End time (UTC)
End Az.
12 mins2024-12-26 11:31:17.490Z181.888° SSW2024-12-26 11:37:17.490Z264.738° W40.563°2024-12-26 11:43:17.490Z338.382° N
10 mins2024-12-27 00:04:17.490Z13.058° NNE2024-12-27 00:09:17.490Z206.935° SW44.968°2024-12-27 00:14:17.490Z195.077° SSW
8 mins2024-12-27 09:57:17.490Z106.117° ESE2024-12-27 10:00:17.490Z70.309° E24.525°2024-12-27 10:05:17.490Z13.59° NNE
|